Location: Burgerwiesen
(48.6500°N, 15.6167°E)
Time: 08:52:53
(UTC+00:00)

ATLAS CENTAUR R/B - Pass Details

Date: 09 April 2020
Orbit: 466 x 681 km, 64.7° (Epoch: 20 May)

Event Time Altitude Azimuth Distance (km) Brightness Sun altitude
Rises 18:37:32 0° 325° (NW) 2,730 6.0 -9.7°
Reaches altitude 10° 18:40:47 10° 352° (N) 1,782 4.4 -10.2°
Maximum altitude 18:42:53 14° 24° (NNE) 1,520 3.6 -10.5°
Drops below altitude 10° 18:44:56 10° 57° (ENE) 1,719 3.5 -10.8°
Enters shadow 18:45:57 - 68° (ENE) 1,953 3.7 -11.0°
